period_start,C,m1,H,J0,J1,J2,J3,J4,J5,JA,JB,JC,JD,JJ,JK,JN,#
2015-02-11 00:00:59,0.29,2.58,0.00,20.89,26.37,29.33,4.76,28.95,1017.15,2036.00,2499.78,2633.04,2849.97,349.78,350.36,15.04,0000 0000 0000 0000 000000
2015-02-11 00:06:00,0.22,2.59,0.00,20.86,26.37,29.24,4.80,28.89,1017.24,2036.00,2497.66,2631.35,2848.14,349.78,350.21,15.07,0000 0000 0000 0000 000000
2015-02-11 00:11:01,0.23,2.59,0.00,20.97,26.37,29.26,4.87,28.88,1017.35,2036.00,2495.82,2629.84,2846.51,349.76,350.22,15.10,0000 0000 0000 0000 000000
2015-02-11 00:16:02,0.20,2.60,0.00,20.87,26.37,29.30,4.87,28.91,1017.43,2036.00,2494.19,2628.53,2844.91,349.78,350.20,15.13,0000 0000 0000 0000 000000
2015-02-11 00:21:04,0.20,2.61,0.00,20.88,26.37,29.33,4.89,28.82,1017.13,2036.00,2492.29,2627.11,2843.33,350.21,350.62,15.16,0000 0000 0000 0000 000000
2015-02-11 00:26:05,0.24,2.62,0.00,20.81,26.37,29.19,4.89,28.79,1017.09,2036.00,2490.35,2625.63,2841.73,350.15,350.59,15.19,0000 0000 0000 0000 000000
2015-02-11 00:31:06,0.22,2.62,0.00,20.87,26.37,29.15,4.88,28.77,1017.08,2036.00,2488.42,2624.15,2840.09,349.57,350.07,15.22,0000 0000 0000 0000 000000
2015-02-11 00:36:07,0.23,2.63,0.00,20.80,26.37,29.20,4.84,29.00,1017.13,2036.00,2486.37,2622.73,2838.49,349.70,350.41,15.25,0000 0000 0000 0000 000000
2015-02-11 00:41:09,0.24,2.63,0.00,20.82,26.36,29.16,4.91,28.99,1017.42,2036.00,2484.19,2621.19,2836.67,350.35,350.91,15.28,0000 0000 0000 0000 000000
2015-02-11 00:46:10,0.21,2.64,0.00,20.82,26.35,29.13,4.94,28.88,1017.53,2036.00,2482.36,2619.73,2835.04,350.11,350.73,15.31,0000 0000 0000 0000 000000
2015-02-11 00:51:11,0.24,2.65,0.00,20.86,26.35,29.08,4.85,29.06,1017.54,2036.00,2480.33,2618.18,2833.40,350.29,350.78,15.33,0000 0000 0000 0000 000000
2015-02-11 00:56:12,0.25,2.66,0.00,20.78,26.35,29.06,4.77,28.73,1017.28,2036.00,2478.15,2616.57,2831.60,349.89,350.64,15.36,0000 0000 0000 0000 000000
2015-02-11 01:01:13,0.27,2.66,0.00,20.77,26.33,29.12,4.88,28.83,1017.13,2036.00,2475.94,2614.84,2829.73,349.78,350.40,15.39,0000 0000 0000 0000 000000
2015-02-11 01:06:15,0.24,2.67,0.00,20.81,26.32,29.08,4.85,28.49,1017.10,2036.00,2473.97,2613.21,2827.90,349.95,350.50,15.42,0000 0000 0000 0000 000000
2015-02-11 01:11:16,0.23,2.68,0.00,20.84,26.32,28.98,4.82,28.41,1017.08,2036.00,2472.05,2611.68,2826.24,349.99,350.21,15.45,0000 0000 0000 0000 000000
2015-02-11 01:16:18,0.21,2.68,0.00,20.79,26.31,29.08,4.96,28.63,1017.09,2036.00,2470.15,2610.31,2824.64,350.79,351.13,15.48,0000 0000 0000 0000 000000
2015-02-11 01:21:19,0.24,2.69,0.00,20.77,26.30,29.11,4.89,28.57,1017.10,2036.00,2468.13,2608.79,2822.98,350.03,350.68,15.51,0000 0000 0000 0000 000000
2015-02-11 01:26:20,0.20,2.70,0.00,20.80,26.30,29.11,4.85,28.50,1017.11,2036.00,2466.35,2607.40,2821.45,349.99,350.46,15.54,0000 0000 0000 0000 000000
2015-02-11 01:31:21,0.22,2.70,0.00,20.82,26.30,29.18,4.85,28.45,1017.07,2036.00,2464.51,2605.98,2819.84,349.81,350.22,15.57,0000 0000 0000 0000 000000
2015-02-11 01:36:22,0.24,2.71,0.00,20.86,26.28,29.12,4.82,28.56,1016.76,2036.00,2462.50,2604.53,2818.30,350.03,350.47,15.60,0000 0000 0000 0000 000000
2015-02-11 01:41:24,0.24,2.72,0.00,20.81,26.27,29.09,4.86,28.61,1016.61,2036.00,2460.40,2602.97,2816.63,350.39,350.48,15.63,0000 0000 0000 0000 000000
2015-02-11 01:46:25,0.21,2.72,0.00,20.85,26.27,29.16,4.89,28.45,1016.26,2036.01,2458.52,2601.57,2815.29,350.54,350.57,15.66,0000 0000 0000 0000 000000
2015-02-11 01:51:27,0.21,2.73,0.00,20.92,26.27,29.24,4.87,28.39,1016.13,2036.01,2456.58,2600.19,2813.64,349.85,350.03,15.69,0000 0000 0000 0000 000000
2015-02-11 01:56:28,0.24,2.74,0.00,20.95,26.27,29.20,4.87,28.52,1016.11,2036.02,2454.66,2598.72,2812.08,350.55,350.51,15.72,0000 0000 0000 0000 000000
2015-02-11 02:01:29,0.21,2.74,0.00,20.96,26.27,29.27,4.81,28.43,1016.04,2036.04,2452.76,2597.35,2810.55,349.79,349.38,15.75,0000 0000 0000 0000 000000
2015-02-11 02:06:31,0.26,2.75,0.00,20.98,26.27,29.26,4.91,28.32,1015.75,2036.06,2450.82,2595.81,2808.81,350.72,350.44,15.77,0000 0000 0000 0000 000000
2015-02-11 02:11:32,0.20,2.76,0.00,21.05,26.27,29.14,4.83,28.50,1015.60,2036.06,2448.96,2594.48,2807.31,349.40,349.01,15.80,0000 0000 0000 0000 000000
2015-02-11 02:16:33,0.23,2.76,0.00,20.95,26.27,29.17,4.87,28.25,1015.19,2036.05,2447.09,2592.93,2805.61,350.57,350.12,15.83,0000 0000 0000 0000 000000
2015-02-11 02:21:34,0.25,2.77,0.00,20.92,26.27,29.26,4.76,28.36,1015.06,2036.07,2445.14,2591.47,2803.94,349.30,348.91,15.86,0000 0000 0000 0000 000000
2015-02-11 02:26:36,0.27,2.78,0.00,20.99,26.28,29.28,4.85,28.52,1015.04,2036.09,2442.94,2589.77,2802.23,349.61,348.96,15.89,0000 0000 0000 0000 000000
2015-02-11 02:31:37,0.21,2.79,0.00,21.06,26.29,29.32,4.82,28.43,1014.89,2036.15,2441.09,2588.36,2800.59,350.14,349.92,15.92,0000 0000 0000 0000 000000
2015-02-11 02:36:38,0.22,2.79,0.00,21.09,26.30,29.26,4.83,28.42,1014.74,2036.06,2439.21,2586.84,2798.86,349.96,349.29,15.95,0000 0000 0000 0000 000000
2015-02-11 02:41:39,0.21,2.80,0.00,21.03,26.30,29.24,4.81,28.57,1015.06,2036.03,2437.33,2585.40,2797.22,350.04,349.49,15.98,0000 0000 0000 0000 000000
2015-02-11 02:46:40,0.21,2.81,0.00,21.04,26.30,29.32,4.87,28.54,1015.15,2036.02,2435.69,2584.01,2795.65,350.25,349.68,16.01,0000 0000 0000 0000 000000
2015-02-11 02:51:41,0.22,2.81,0.00,21.11,26.31,29.37,4.79,28.32,1015.17,2036.02,2433.93,2582.67,2794.08,349.68,349.29,16.04,0000 0000 0000 0000 000000
2015-02-11 02:56:43,0.20,2.82,0.00,21.11,26.32,29.36,4.78,28.18,1015.18,2036.01,2432.17,2581.24,2792.46,350.10,349.49,16.07,0000 0000 0000 0000 000000
2015-02-11 03:01:44,0.24,2.83,0.00,21.12,26.32,29.38,4.85,28.47,1014.92,2036.00,2430.36,2579.76,2790.80,349.52,348.91,16.10,0000 0000 0000 0000 000000
2015-02-11 03:06:45,0.20,2.83,0.00,21.12,26.33,29.40,4.88,28.66,1014.58,2036.00,2428.51,2578.43,2789.26,350.31,349.39,16.13,0000 0000 0000 0000 000000
2015-02-11 03:11:47,0.24,2.84,0.00,21.18,26.35,29.33,4.87,28.70,1014.20,2036.00,2426.66,2576.92,2787.62,350.52,349.60,16.15,0000 0000 0000 0000 000000
2015-02-11 03:16:48,0.22,2.85,0.00,21.17,26.35,29.41,4.80,28.68,1014.20,2036.00,2424.77,2575.47,2785.95,350.13,349.30,16.18,0000 0000 0000 0000 000000
2015-02-11 03:21:49,0.20,2.85,0.00,21.17,26.36,29.48,4.89,28.70,1014.24,2036.00,2423.09,2574.09,2784.45,350.18,349.14,16.21,0000 0000 0000 0000 000000
2015-02-11 03:26:50,0.24,2.86,0.00,21.17,26.37,29.49,4.84,28.62,1014.45,2036.00,2421.19,2572.63,2782.78,350.09,349.18,16.24,0000 0000 0000 0000 000000
2015-02-11 03:31:52,0.21,2.87,0.00,21.19,26.38,29.46,4.80,28.71,1014.62,2036.00,2419.30,2571.26,2781.21,349.59,348.72,16.27,0000 0000 0000 0000 000000
2015-02-11 03:36:53,0.26,2.87,0.00,21.20,26.40,29.36,4.86,28.71,1014.64,2036.00,2417.36,2569.70,2779.53,350.03,349.19,16.30,0000 0000 0000 0000 000000
2015-02-11 03:41:54,0.22,2.88,0.00,21.25,26.40,29.44,4.82,28.64,1014.64,2036.00,2415.36,2568.27,2777.73,350.16,349.23,16.33,0000 0000 0000 0000 000000
2015-02-11 03:46:56,0.25,2.89,0.00,21.22,26.42,29.47,4.87,28.78,1014.65,2035.99,2413.49,2566.73,2775.98,350.02,349.20,16.36,0000 0000 0000 0000 000000
2015-02-11 03:51:57,0.24,2.89,0.00,21.21,26.42,29.48,4.81,28.41,1014.69,2035.99,2411.49,2565.21,2774.21,349.92,348.93,16.39,0000 0000 0000 0000 000000
2015-02-11 03:56:58,0.26,2.90,0.00,21.23,26.44,29.50,4.81,28.27,1014.95,2035.99,2409.43,2563.63,2772.39,350.10,349.14,16.42,0000 0000 0000 0000 000000
2015-02-11 04:01:59,0.25,2.91,0.00,21.26,26.45,29.48,4.78,28.38,1015.11,2035.98,2407.36,2562.03,2770.55,350.05,349.24,16.45,0000 0000 0000 0000 000000
2015-02-11 04:07:01,0.26,2.92,0.00,21.19,26.45,29.50,4.79,28.40,1015.15,2035.98,2405.20,2560.44,2768.74,349.62,349.10,16.48,0000 0000 0000 0000 000000
2015-02-11 04:12:02,0.27,2.92,0.00,21.25,26.47,29.56,4.85,28.23,1015.16,2035.98,2403.00,2558.85,2766.87,350.38,349.71,16.51,0000 0000 0000 0000 000000
2015-02-11 04:17:03,0.26,2.93,0.00,21.27,26.47,29.58,4.85,28.36,1015.16,2035.95,2400.75,2557.31,2764.92,349.91,349.07,16.54,0000 0000 0000 0000 000000
2015-02-11 04:22:05,0.28,2.94,0.00,21.25,26.49,29.51,4.86,28.24,1015.14,2035.96,2398.49,2555.61,2762.96,349.99,349.11,16.56,0000 0000 0000 0000 000000
2015-02-11 04:27:06,0.30,2.95,0.00,21.24,26.50,29.59,4.82,28.68,1014.80,2035.94,2396.12,2553.75,2760.93,349.54,348.61,16.59,0000 0000 0000 0000 000000
2015-02-11 04:32:07,0.25,2.96,0.00,21.30,26.50,29.62,4.86,28.45,1014.68,2035.78,2393.79,2551.88,2758.79,350.42,349.22,16.62,0000 0000 0000 0000 000000
2015-02-11 04:37:09,0.24,2.96,0.00,21.33,26.52,29.60,4.78,28.43,1014.66,2035.69,2391.63,2550.25,2756.90,349.67,348.74,16.65,0000 0000 0000 0000 000000
2015-02-11 04:42:10,0.24,2.97,0.00,21.30,26.52,29.61,4.83,28.44,1014.65,2035.29,2389.24,2548.37,2754.77,350.07,349.19,16.68,0000 0000 0000 0000 000000
2015-02-11 04:47:11,0.26,2.98,0.00,21.22,26.53,29.56,4.83,28.58,1014.63,2035.18,2387.09,2546.49,2752.72,350.04,349.14,16.71,0000 0000 0000 0000 000000
2015-02-11 04:52:13,0.26,2.99,0.00,21.23,26.55,29.58,4.81,28.49,1014.50,2035.06,2384.84,2544.76,2750.83,349.93,348.98,16.74,0000 0000 0000 0000 000000
2015-02-11 04:57:14,0.26,2.99,0.00,21.27,26.55,29.63,4.88,28.42,1014.38,2035.04,2382.76,2543.18,2748.98,349.78,348.92,16.77,0000 0000 0000 0000 000000
2015-02-11 05:02:15,0.26,3.00,0.00,21.29,26.57,29.60,4.84,28.40,1014.24,2035.04,2380.72,2541.53,2747.11,349.77,348.52,16.80,0000 0000 0000 0000 000000
2015-02-11 05:07:17,0.25,3.01,0.00,21.31,26.57,29.62,4.83,28.45,1014.19,2035.02,2378.63,2539.94,2745.25,349.91,348.78,16.83,0000 0000 0000 0000 000000
2015-02-11 05:12:18,0.26,3.02,0.00,21.36,26.57,29.58,4.77,28.38,1014.17,2035.01,2376.49,2538.34,2743.39,349.09,348.07,16.86,0000 0000 0000 0000 000000
2015-02-11 05:17:19,0.28,3.03,0.00,21.32,26.59,29.61,4.78,28.43,1014.02,2035.00,2374.25,2536.67,2741.42,350.28,348.95,16.89,0000 0000 0000 0000 000000
2015-02-11 05:22:20,0.29,3.03,0.00,21.37,26.60,29.69,4.79,28.31,1013.99,2035.00,2371.99,2534.96,2739.41,349.58,348.29,16.92,0000 0000 0000 0000 000000
2015-02-11 05:27:22,0.28,3.04,0.00,21.28,26.61,29.67,4.88,28.46,1013.86,2035.00,2369.63,2533.27,2737.40,350.32,349.02,16.95,0000 0000 0000 0000 000000
2015-02-11 05:32:23,0.28,3.05,0.00,21.40,26.62,29.64,4.82,28.23,1013.72,2035.00,2367.37,2531.53,2735.38,350.23,348.83,16.98,0000 0000 0000 0000 000000
2015-02-11 05:37:25,0.27,3.06,0.00,21.36,26.62,29.64,4.81,28.42,1013.53,2035.00,2365.25,2529.85,2733.43,349.88,348.44,17.00,0000 0000 0000 0000 000000
2015-02-11 05:42:26,0.29,3.07,0.00,21.48,26.64,29.71,4.82,29.00,1012.96,2035.00,2362.88,2528.07,2731.36,350.08,348.43,17.03,0000 0000 0000 0000 000000
2015-02-11 05:47:27,0.31,3.08,0.00,21.47,26.65,29.72,4.83,29.35,1012.31,2034.99,2360.54,2526.13,2729.28,350.10,348.23,17.06,0000 0000 0000 0000 000000
2015-02-11 05:52:29,0.29,3.09,0.00,21.45,26.65,29.65,4.90,29.61,1011.75,2034.99,2358.20,2524.33,2727.25,350.18,348.06,17.09,0000 0000 0000 0000 000000
2015-02-11 05:57:30,0.33,3.10,0.00,21.43,26.67,29.69,4.82,29.67,1011.31,2034.99,2355.64,2522.28,2724.92,350.42,348.14,17.12,0000 0000 0000 0000 000000
2015-02-11 06:02:31,0.29,3.10,0.00,21.35,26.67,29.65,4.84,29.62,1010.89,2034.99,2353.34,2520.52,2722.90,350.39,347.96,17.15,0000 0000 0000 0000 000000
2015-02-11 06:07:33,0.26,3.11,0.00,21.28,26.68,29.64,4.85,30.02,1010.76,2034.99,2351.38,2518.95,2721.06,350.13,347.93,17.18,0000 0000 0000 0000 000000
2015-02-11 06:12:34,0.26,3.12,0.00,21.18,26.69,29.53,4.82,29.80,1010.77,2034.98,2349.13,2517.35,2719.19,349.87,347.71,17.21,0000 0000 0000 0000 000000
2015-02-11 06:17:35,0.28,3.13,0.00,21.15,26.69,29.54,4.86,29.88,1010.75,2034.99,2347.03,2515.75,2717.37,350.17,347.98,17.24,0000 0000 0000 0000 000000
2015-02-11 06:22:36,0.25,3.14,0.00,21.10,26.69,29.48,4.89,29.78,1010.69,2034.99,2345.01,2514.24,2715.53,350.48,348.28,17.27,0000 0000 0000 0000 000000
2015-02-11 06:27:38,0.28,3.14,0.00,21.03,26.68,29.48,4.83,29.82,1010.41,2034.99,2342.93,2512.68,2713.74,349.86,347.91,17.30,0000 0000 0000 0000 000000
2015-02-11 06:32:39,0.23,3.15,0.00,21.06,26.67,29.33,4.75,29.94,1010.17,2034.99,2340.85,2511.18,2711.99,349.87,347.56,17.33,0000 0000 0000 0000 000000
2015-02-11 06:37:41,0.28,3.16,0.00,21.02,26.67,29.41,4.86,30.04,1009.82,2034.99,2338.72,2509.66,2710.24,349.84,347.53,17.36,0000 0000 0000 0000 000000
2015-02-11 06:42:42,0.26,3.17,0.00,20.96,26.65,29.43,4.80,30.26,1009.78,2034.99,2336.55,2508.07,2708.40,349.75,347.57,17.39,0000 0000 0000 0000 000000
2015-02-11 06:47:44,0.27,3.17,0.00,20.93,26.65,29.30,4.83,30.54,1009.78,2034.99,2334.49,2506.52,2706.57,350.68,348.25,17.41,0000 0000 0000 0000 000000
2015-02-11 06:52:45,0.26,3.18,0.00,20.85,26.62,29.32,4.94,30.48,1009.81,2034.99,2332.56,2504.94,2704.80,350.46,348.34,17.44,0000 0000 0000 0000 000000
2015-02-11 06:57:46,0.25,3.19,0.00,20.73,26.61,29.25,4.86,30.30,1009.81,2034.99,2330.56,2503.51,2702.99,349.95,347.73,17.47,0000 0000 0000 0000 000000
2015-02-11 07:02:48,0.27,3.20,0.00,20.70,26.59,29.06,4.77,30.06,1009.79,2035.01,2328.39,2501.92,2701.28,349.92,347.92,17.50,0000 0000 0000 0000 000000
2015-02-11 07:07:49,0.26,3.21,0.00,20.65,26.57,29.10,4.88,30.06,1009.78,2035.01,2326.25,2500.41,2699.46,349.95,348.09,17.53,0000 0000 0000 0000 000000
2015-02-11 07:12:50,0.27,3.21,0.00,20.58,26.55,28.93,4.78,30.16,1009.69,2035.07,2324.20,2498.88,2697.74,349.59,347.84,17.56,0000 0000 0000 0000 000000
2015-02-11 07:17:52,0.30,3.22,0.00,20.53,26.52,28.90,4.82,30.31,1009.50,2035.26,2322.13,2497.44,2696.03,349.73,347.89,17.59,0000 0000 0000 0000 000000
2015-02-11 07:22:53,0.29,3.23,0.00,20.50,26.49,28.89,4.85,30.16,1009.44,2035.56,2320.11,2496.01,2694.34,350.22,348.40,17.62,0000 0000 0000 0000 000000
2015-02-11 07:27:54,0.31,3.24,0.00,20.52,26.46,28.75,4.79,29.76,1009.74,2035.87,2318.08,2494.68,2692.64,350.04,348.29,17.65,0000 0000 0000 0000 000000
2015-02-11 07:32:56,0.26,3.25,0.00,20.46,26.43,28.83,4.83,29.95,1009.84,2035.95,2316.06,2493.29,2690.85,350.12,348.48,17.68,0000 0000 0000 0000 000000
2015-02-11 07:37:57,0.27,3.26,0.00,20.40,26.40,28.75,4.87,29.97,1010.23,2035.98,2313.98,2491.77,2689.18,349.84,348.34,17.71,0000 0000 0000 0000 000000
2015-02-11 07:42:58,0.25,3.26,0.00,20.48,26.37,28.73,4.89,29.77,1010.28,2035.99,2311.88,2490.23,2687.40,350.07,348.40,17.74,0000 0000 0000 0000 000000
2015-02-11 07:48:00,0.27,3.27,0.00,20.41,26.34,28.79,4.87,30.20,1010.27,2035.99,2309.72,2488.74,2685.77,350.34,348.91,17.77,0000 0000 0000 0000 000000
2015-02-11 07:53:01,0.26,3.28,0.00,20.38,26.31,28.70,4.83,29.97,1010.02,2036.00,2307.59,2487.26,2683.99,350.02,348.43,17.80,0000 0000 0000 0000 000000
2015-02-11 07:58:02,0.30,3.29,0.00,20.45,26.28,28.68,4.83,30.50,1009.58,2036.05,2305.37,2485.58,2682.10,350.05,348.40,17.82,0000 0000 0000 0000 000000
2015-02-11 08:03:04,0.35,3.30,0.00,20.35,26.25,28.75,4.88,30.23,1009.36,2036.15,2303.09,2483.66,2679.90,349.70,348.02,17.85,0000 0000 0000 0000 000000
2015-02-11 08:08:05,0.30,3.31,0.00,20.38,26.21,28.59,4.84,30.18,1009.40,2036.32,2300.92,2481.98,2677.88,350.08,348.31,17.88,0000 0000 0000 0000 000000
2015-02-11 08:13:06,0.41,3.32,0.00,20.37,26.19,28.64,4.81,30.27,1009.75,2036.82,2298.70,2480.31,2675.91,349.52,347.96,17.91,0000 0000 0000 0000 000000
2015-02-11 08:18:07,0.49,3.33,0.00,20.29,26.16,28.69,4.92,30.43,1009.73,2036.97,2295.70,2477.25,2672.68,350.19,348.70,17.94,0000 0000 0000 0000 000000
2015-02-11 08:23:09,0.29,3.34,0.00,20.30,26.13,28.55,4.76,30.32,1009.64,2036.98,2293.28,2475.36,2670.49,349.94,348.41,17.97,0000 0000 0000 0000 000000
2015-02-11 08:28:10,0.28,3.35,0.00,20.31,26.10,28.62,4.91,30.06,1010.45,2036.99,2291.31,2473.71,2668.63,350.12,348.86,18.00,0000 0000 0000 0000 000000
2015-02-11 08:33:12,0.26,3.36,0.00,20.33,26.07,28.68,4.88,28.94,1011.53,2036.99,2289.26,2472.26,2666.86,350.18,349.18,18.03,0000 0000 0000 0000 000000
2015-02-11 08:38:13,0.31,3.37,0.00,20.42,26.05,28.57,4.79,28.82,1011.86,2037.00,2286.98,2470.57,2664.93,350.35,349.59,18.06,0000 0000 0000 0000 000000
2015-02-11 08:43:14,0.31,3.38,0.00,20.45,26.02,28.69,4.83,28.79,1012.32,2037.03,2284.54,2468.83,2662.90,350.62,349.84,18.09,0000 0000 0000 0000 000000
2015-02-11 08:48:16,0.36,3.39,0.00,20.50,26.00,28.69,4.83,28.52,1012.93,2037.30,2282.24,2467.24,2660.93,350.21,349.59,18.12,0000 0000 0000 0000 000000
2015-02-11 08:53:17,0.34,3.40,0.00,20.52,25.97,28.75,4.87,28.63,1013.20,2037.77,2280.15,2465.64,2659.07,350.50,350.03,18.15,0000 0000 0000 0000 000000
2015-02-11 08:58:18,0.30,3.41,0.00,20.45,25.96,28.70,4.90,28.98,1013.31,2037.90,2278.00,2464.03,2657.16,350.22,350.00,18.18,0000 0000 0000 0000 000000
2015-02-11 09:03:20,0.28,3.42,0.00,20.50,25.95,28.74,4.85,29.22,1013.23,2037.98,2275.92,2462.50,2655.30,349.96,349.43,18.21,0000 0000 0000 0000 000000
2015-02-11 09:08:21,0.25,3.42,0.00,20.51,25.93,28.79,4.86,29.10,1013.29,2037.98,2274.04,2461.00,2653.61,350.68,350.18,18.23,0000 0000 0000 0000 000000
2015-02-11 09:13:22,0.27,3.43,0.00,20.53,25.92,28.87,4.81,29.07,1013.24,2037.99,2272.03,2459.51,2651.84,350.12,349.68,18.26,0000 0000 0000 0000 000000
2015-02-11 09:18:23,0.28,3.44,0.00,20.58,25.92,28.84,4.87,28.98,1013.44,2037.99,2269.94,2457.90,2649.99,349.54,349.10,18.29,0000 0000 0000 0000 000000
2015-02-11 09:23:25,0.27,3.45,0.00,20.66,25.92,28.94,4.82,28.82,1013.42,2037.99,2267.90,2456.31,2648.12,349.56,348.93,18.32,0000 0000 0000 0000 000000
2015-02-11 09:28:26,0.29,3.46,0.00,20.73,25.92,28.95,4.85,29.19,1013.38,2037.99,2265.76,2454.72,2646.33,350.45,349.71,18.35,0000 0000 0000 0000 000000
2015-02-11 09:33:27,0.27,3.47,0.00,20.75,25.92,28.96,4.79,29.42,1013.37,2037.99,2263.70,2453.10,2644.50,349.98,349.32,18.38,0000 0000 0000 0000 000000
2015-02-11 09:38:28,0.27,3.47,0.00,20.76,25.92,29.02,4.82,29.33,1013.38,2037.98,2261.68,2451.61,2642.75,349.69,349.00,18.41,0000 0000 0000 0000 000000
2015-02-11 09:43:29,0.26,3.48,0.00,20.84,25.94,29.03,4.86,29.48,1013.44,2037.98,2259.65,2450.00,2640.92,349.99,349.13,18.44,0000 0000 0000 0000 000000
2015-02-11 09:48:31,0.27,3.49,0.00,20.90,25.95,29.11,4.87,29.17,1013.65,2037.98,2257.68,2448.52,2639.20,350.57,349.67,18.47,0000 0000 0000 0000 000000
2015-02-11 09:53:32,0.27,3.50,0.00,20.92,25.97,29.14,4.92,28.88,1013.53,2037.98,2255.67,2446.93,2637.45,350.13,349.26,18.50,0000 0000 0000 0000 000000
2015-02-11 09:58:33,0.27,3.50,0.00,20.94,25.98,29.17,4.84,28.73,1013.57,2037.96,2253.56,2445.32,2635.63,350.40,349.43,18.53,0000 0000 0000 0000 000000
2015-02-11 10:03:34,0.29,3.51,0.00,21.04,26.00,29.22,4.82,28.43,1013.25,2037.96,2251.45,2443.73,2633.84,350.41,349.26,18.56,0000 0000 0000 0000 000000
2015-02-11 10:08:35,0.27,3.52,0.00,20.98,26.02,29.19,4.82,28.28,1013.20,2037.88,2249.30,2442.07,2632.03,349.87,348.75,18.59,0000 0000 0000 0000 000000
2015-02-11 10:13:36,0.24,3.53,0.00,21.06,26.05,29.23,4.79,28.38,1013.16,2037.70,2247.24,2440.48,2630.16,349.92,348.71,18.62,0000 0000 0000 0000 000000
2015-02-11 10:18:38,0.24,3.54,0.00,21.07,26.07,29.31,4.82,28.45,1013.34,2037.52,2245.16,2438.81,2628.36,349.87,348.88,18.64,0000 0000 0000 0000 000000
2015-02-11 10:23:39,0.20,3.54,0.00,21.20,26.10,29.31,4.87,28.64,1013.26,2037.12,2243.09,2437.16,2626.47,350.42,349.26,18.67,0000 0000 0000 0000 000000
2015-02-11 10:28:40,0.30,3.55,0.00,21.15,26.12,29.35,4.90,28.52,1013.25,2037.02,2240.99,2435.53,2624.47,350.67,349.45,18.70,0000 0000 0000 0000 000000
2015-02-11 10:33:41,0.30,3.56,0.00,21.22,26.15,29.40,4.84,28.24,1013.17,2037.00,2238.80,2433.73,2622.48,349.91,348.46,18.73,0000 0000 0000 0000 000000
2015-02-11 10:38:42,0.35,3.57,0.00,21.29,26.18,29.48,4.88,28.40,1012.79,2037.00,2236.35,2431.83,2620.25,350.18,348.52,18.76,0000 0000 0000 0000 000000
2015-02-11 10:43:43,0.34,3.58,0.00,21.31,26.21,29.48,4.76,28.33,1012.71,2037.00,2233.87,2429.94,2617.99,350.01,348.44,18.79,0000 0000 0000 0000 000000
2015-02-11 10:48:45,0.33,3.59,0.00,21.36,26.23,29.53,4.88,28.27,1012.97,2036.99,2231.44,2428.02,2615.73,350.31,348.68,18.82,0000 0000 0000 0000 000000
2015-02-11 10:53:46,0.33,3.60,0.00,21.38,26.26,29.55,4.82,28.36,1013.20,2036.95,2229.05,2426.11,2613.46,349.85,348.09,18.85,0000 0000 0000 0000 000000
2015-02-11 10:58:47,0.27,3.61,0.00,21.40,26.30,29.59,4.84,28.23,1013.49,2036.85,2226.83,2424.32,2611.33,350.11,348.60,18.88,0000 0000 0000 0000 000000
2015-02-11 11:03:48,0.19,3.61,0.00,21.45,26.33,29.62,4.79,28.26,1013.70,2036.28,2224.69,2422.58,2609.35,349.63,348.17,18.91,0000 0000 0000 0000 000000
2015-02-11 11:08:49,0.32,3.62,0.00,21.45,26.36,29.66,4.86,28.16,1014.10,2036.03,2222.35,2420.66,2607.07,350.32,348.97,18.94,0000 0000 0000 0000 000000
2015-02-11 11:13:51,0.33,3.63,0.00,21.49,26.40,29.71,4.82,28.06,1014.41,2036.00,2220.06,2418.77,2604.86,349.69,348.39,18.97,0000 0000 0000 0000 000000
2015-02-11 11:18:52,0.29,3.64,0.00,21.55,26.43,29.76,4.80,28.25,1014.66,2036.00,2217.93,2417.05,2602.87,349.73,348.45,19.00,0000 0000 0000 0000 000000
2015-02-11 11:23:53,0.27,3.65,0.00,21.61,26.46,29.77,4.82,28.21,1014.69,2035.97,2216.01,2415.47,2601.05,349.91,348.44,19.03,0000 0000 0000 0000 000000
2015-02-11 11:28:55,0.28,3.66,0.00,21.63,26.50,29.78,4.81,28.22,1014.68,2035.95,2213.88,2413.76,2599.20,350.03,348.68,19.05,0000 0000 0000 0000 000000
2015-02-11 11:33:56,0.25,3.67,0.00,21.67,26.53,29.82,4.86,28.18,1014.66,2035.82,2211.85,2412.24,2597.36,350.49,348.96,19.08,0000 0000 0000 0000 000000
2015-02-11 11:38:57,0.16,3.67,0.00,21.73,26.57,29.86,4.84,28.27,1014.38,2035.18,2209.77,2410.60,2595.56,350.08,348.57,19.11,0000 0000 0000 0000 000000
2015-02-11 11:43:59,0.28,3.68,0.00,21.77,26.60,29.90,4.82,28.31,1014.01,2035.01,2207.75,2408.89,2593.64,349.76,348.09,19.14,0000 0000 0000 0000 000000
2015-02-11 11:48:59,0.27,3.69,0.00,21.77,26.64,29.94,4.86,28.56,1013.69,2035.00,2205.80,2407.34,2591.76,350.46,348.59,19.17,0000 0000 0000 0000 000000
2015-02-11 11:54:01,0.28,3.70,0.00,21.87,26.67,30.00,4.80,28.51,1013.48,2035.00,2203.86,2405.73,2589.98,349.70,347.64,19.20,0000 0000 0000 0000 000000
2015-02-11 11:59:02,0.32,3.70,0.00,21.90,26.71,30.05,4.79,28.46,1013.37,2034.98,2201.69,2403.98,2588.01,349.53,347.44,19.23,0000 0000 0000 0000 000000
2015-02-11 12:04:04,0.27,3.71,0.00,21.94,26.75,30.10,4.88,28.57,1013.50,2034.86,2199.55,2402.23,2586.02,349.84,347.76,19.26,0000 0000 0000 0000 000000
2015-02-11 12:09:05,0.17,3.72,0.00,21.92,26.78,30.13,4.82,28.45,1013.67,2034.29,2197.40,2400.67,2584.16,349.88,347.91,19.29,0000 0000 0000 0000 000000
2015-02-11 12:14:06,0.27,3.73,0.00,21.97,26.82,30.19,4.82,28.36,1013.69,2034.03,2195.35,2399.01,2582.27,350.11,347.79,19.32,0000 0000 0000 0000 000000
2015-02-11 12:19:07,0.27,3.73,0.00,21.91,26.86,30.19,4.84,28.43,1013.69,2034.01,2193.36,2397.40,2580.48,350.18,348.00,19.35,0000 0000 0000 0000 000000
2015-02-11 12:24:09,0.29,3.74,0.00,21.92,26.89,30.16,4.74,28.14,1013.83,2034.00,2191.37,2395.79,2578.66,349.59,347.65,19.38,0000 0000 0000 0000 000000
2015-02-11 12:29:10,0.27,3.75,0.00,21.98,26.92,30.21,4.83,28.17,1014.02,2033.98,2189.40,2394.25,2576.86,349.80,347.63,19.41,0000 0000 0000 0000 000000
2015-02-11 12:34:11,0.27,3.76,0.00,22.01,26.96,30.25,4.82,28.04,1014.17,2033.94,2187.46,2392.70,2575.12,350.08,348.14,19.44,0000 0000 0000 0000 000000
2015-02-11 12:39:12,0.19,3.77,0.00,22.01,26.99,30.25,4.85,28.14,1014.17,2033.60,2185.50,2391.17,2573.40,350.51,348.40,19.46,0000 0000 0000 0000 000000
2015-02-11 12:44:13,0.20,3.77,0.00,22.05,27.03,30.26,4.77,28.00,1014.10,2033.10,2183.62,2389.67,2571.65,350.27,348.21,19.49,0000 0000 0000 0000 000000
2015-02-11 12:49:15,0.24,3.78,0.00,22.08,27.06,30.30,4.86,28.07,1013.81,2033.01,2181.84,2388.21,2569.94,350.20,347.88,19.52,0000 0000 0000 0000 000000
2015-02-11 12:54:16,0.26,3.79,0.00,22.14,27.10,30.32,4.81,28.03,1013.70,2033.00,2179.98,2386.73,2568.34,350.16,347.65,19.55,0000 0000 0000 0000 000000
2015-02-11 12:59:17,0.25,3.79,0.00,22.13,27.13,30.33,4.78,28.12,1013.69,2033.00,2178.28,2385.38,2566.63,349.71,347.57,19.58,0000 0000 0000 0000 000000